Location: Wyoming Infrared Observatory
(41.0971°N, 105.9765°W)
Time: 21:38:03
(UTC-06:00)

Amateur Radio Satellites - All Passes

Search period start: 26 June 2017 21:08
Search period end: 27 June 2017 21:08
Location: Wyoming Infrared Observatory, 41.0971°N, 105.9765°W

Satellite Date Start Highest point End Downlink Frequencies (MHz)
Time Altitude Azimuth
DELFI C3 26 Jun 21:17:37 21:21:02 30° 71° (ENE) 21:24:29 145.870
AO-85 26 Jun 21:21:05 21:24:57 42° 307° (NW) 21:28:43 145.980
AO-73 26 Jun 21:22:48 21:27:09 45° 262° (W) 21:31:34 145.935
BEESAT 2 26 Jun 21:34:00 21:37:51 53° 118° (ESE) 21:41:48 435.950
HO-68 26 Jun 21:37:12 21:40:16 13° 272° (W) 21:43:21 435.675
CUBEBUG 2 26 Jun 21:40:07 21:41:07 11° 272° (W) 21:42:07 437.445
AAUSAT CUBESAT 2 26 Jun 21:40:17 21:42:24 14° 269° (W) 21:44:31 437.432
STRAND 1 26 Jun 21:44:23 21:48:30 25° 295° (WNW) 21:52:37 437.568
NO-84 26 Jun 21:47:34 21:51:24 76° 137° (SE) 21:55:34 435.350 FM
Oscar 11 26 Jun 21:49:03 21:52:51 29° 264° (W) 21:56:40 .
EO-88 26 Jun 21:55:39 21:59:15 56° 75° (ENE) 22:02:53 145.990 - 145.960
ZACube-1 26 Jun 22:00:18 22:03:21 18° 268° (W) 22:06:26 437.345
FO-29 26 Jun 22:05:38 22:12:51 38° 95° (E) 22:19:54 435.910
BEESAT 3 26 Jun 22:10:09 22:13:28 24° 312° (NW) 22:16:48 437.485
LO-87 26 Jun 22:15:59 22:17:29 12° 65° (ENE) 22:18:58 145.935 - 145.965
TIGRISAT 26 Jun 22:17:16 22:20:54 22° 93° (E) 22:24:27 435.000
O/OREOS (USA 219) 26 Jun 22:17:25 22:21:49 50° 296° (WNW) 22:26:14 437.305
YUBILEINY 26 Jun 22:27:52 22:36:40 85° 96° (E) 22:45:33 435.215
SO-50 26 Jun 22:36:30 22:40:43 37° 50° (NE) 22:44:56 436.795
ESTCUBE 1 26 Jun 22:45:16 22:48:39 21° 66° (ENE) 22:52:00 437.505/2401.250
PCSat 26 Jun 22:48:29 22:52:28 21° 254° (WSW) 22:56:26 145.827
RS-15 26 Jun 22:49:48 23:01:40 53° 314° (NW) 23:13:43 29.354- 29.394
M-CUBED/EXP-1 PRIME 26 Jun 22:52:02 22:55:49 76° 107° (ESE) 22:59:53 437.505
DELFI C3 26 Jun 22:52:59 22:55:50 19° 266° (W) 22:58:42 145.870
UNISAT 6 26 Jun 22:59:05 23:03:45 67° 101° (ESE) 23:08:16 437.425
BEESAT 2 26 Jun 23:13:13 23:15:55 17° 316° (NW) 23:18:39 435.950
PRISM 26 Jun 23:18:47 23:22:53 73° 286° (WNW) 23:26:59 437.425
NO-84 26 Jun 23:26:08 23:29:25 23° 336° (NNW) 23:32:52 435.350 FM
QB50P2 26 Jun 23:42:38 23:44:19 12° 90° (E) 23:46:01 145.880/145.840
LO-87 26 Jun 23:47:09 23:50:31 41° 262° (W) 23:53:56 145.935 - 145.965
FO-29 26 Jun 23:50:27 23:57:53 48° 292° (WNW) 00:05:13 435.910
TIGRISAT 26 Jun 23:53:24 23:57:39 36° 290° (WNW) 00:01:49 435.000
EO-79 27 Jun 00:05:19 00:08:30 20° 94° (E) 00:11:41 145.935-145.965
VELOX 1 27 Jun 00:15:45 00:19:54 44° 71° (ENE) 00:24:05 145.980
SO-50 27 Jun 00:17:17 00:21:00 25° 247° (WSW) 00:24:43 436.795
DUCHIFAT 1 27 Jun 00:17:21 00:20:41 22° 94° (E) 00:23:59 145.980
ESTCUBE 1 27 Jun 00:21:01 00:25:11 37° 262° (W) 00:29:23 437.505/2401.250
SPROUT 27 Jun 00:25:07 00:29:19 61° 74° (ENE) 00:33:33 437.525
NANOSAT C BR1 27 Jun 00:26:22 00:30:11 31° 97° (E) 00:33:57 145.865
YUBILEINY 27 Jun 00:28:22 00:34:37 21° 297° (WNW) 00:40:56 435.215
DX 1 27 Jun 00:31:17 00:34:38 22° 66° (ENE) 00:37:59 434.975-435.025
UNISAT 6 27 Jun 00:37:36 00:39:50 13° 298° (WNW) 00:42:02 437.425
AIST 2D 27 Jun 00:40:29 00:43:55 59° 285° (WNW) 00:47:20 435.315
UKube-1 27 Jun 00:45:20 00:48:34 21° 66° (ENE) 00:51:50 .
50 SAT 27 Jun 00:54:35 00:57:52 52° 74° (ENE) 01:01:10 437.505
POLYITAN 1 27 Jun 01:05:14 01:09:33 84° 282° (WNW) 01:13:48 437.675
NO-84 27 Jun 01:06:23 01:08:21 13° 357° (N) 01:10:19 435.350 FM
RS-15 27 Jun 01:08:28 01:18:02 25° 345° (NNW) 01:27:32 29.354- 29.394
QB50P2 27 Jun 01:16:15 01:20:27 57° 287° (WNW) 01:24:38 145.880/145.840
BUGSAT 1 27 Jun 01:20:46 01:24:38 33° 97° (E) 01:28:27 437.445
FO-29 27 Jun 01:40:19 01:41:04 10° 312° (NW) 01:41:48 435.910
EO-79 27 Jun 01:40:28 01:44:20 34° 290° (WNW) 01:48:11 145.935-145.965
DUCHIFAT 1 27 Jun 01:52:36 01:56:22 31° 290° (WNW) 02:00:06 145.980
VELOX 1 27 Jun 01:53:50 01:56:34 16° 268° (W) 01:59:19 145.980
NANOSAT C BR1 27 Jun 02:02:22 02:05:43 23° 293° (WNW) 02:09:01 145.865
SPROUT 27 Jun 02:04:15 02:05:36 11° 270° (W) 02:06:59 437.525
DX 1 27 Jun 02:06:44 02:10:38 32° 263° (W) 02:14:33 434.975-435.025
MOZHAYETS 4 27 Jun 02:08:01 02:08:35 10° 60° (ENE) 02:09:10
Gurwin Techsat 1B 27 Jun 02:09:30 02:13:56 26° 95° (E) 02:18:20 435.225
UKube-1 27 Jun 02:20:29 02:24:23 34° 262° (W) 02:28:19 .
ITUPSAT 1 27 Jun 02:38:27 02:42:45 34° 69° (ENE) 02:47:05 437.325
Oscar 19 27 Jun 02:42:07 02:47:17 85° 105° (ESE) 02:52:24 437.125/150
NO-84 27 Jun 02:44:27 02:47:24 17° 18° (NNE) 02:50:22 435.350 FM
BEESAT 27 Jun 02:47:06 02:51:36 42° 70° (ENE) 02:56:07 436.000
BUGSAT 1 27 Jun 02:56:32 02:59:46 21° 293° (WNW) 03:02:58 437.445
AO-7 27 Jun 03:15:34 03:21:19 20° 91° (E) 03:27:00 .
ITAMSAT 1 27 Jun 03:24:33 03:27:47 16° 91° (E) 03:30:59 435.822/435.867
RS-15 27 Jun 03:26:17 03:36:17 27° 21° (NNE) 03:45:58 29.354- 29.394
MOZHAYETS 4 27 Jun 03:40:21 03:45:00 89° 261° (W) 03:49:40
Gurwin Techsat 1B 27 Jun 03:49:02 03:53:58 39° 291° (WNW) 03:58:52 435.225
AO-85 27 Jun 04:12:04 04:14:51 17° 45° (NE) 04:17:44 145.980
ITUPSAT 1 27 Jun 04:16:37 04:20:35 26° 265° (W) 04:24:36 437.325
NO-84 27 Jun 04:21:29 04:25:48 55° 37° (NE) 04:30:02 435.350 FM
Oscar 19 27 Jun 04:23:41 04:25:52 13° 301° (WNW) 04:28:02 437.125/150
BEESAT 27 Jun 04:25:58 04:29:31 21° 266° (W) 04:33:06 436.000
CUBESAT XI-V 27 Jun 04:25:59 04:30:28 51° 73° (ENE) 04:34:57 437.345
BEESAT 3 27 Jun 04:49:10 04:52:17 21° 46° (NE) 04:55:22 437.485
KKS-1 27 Jun 05:01:44 05:06:09 86° 79° (ENE) 05:10:37 437.445
ITAMSAT 1 27 Jun 05:02:28 05:07:38 61° 288° (WNW) 05:12:46 435.822/435.867
AO-7 27 Jun 05:06:32 05:14:58 85° 290° (WNW) 05:23:20 .
STARS 27 Jun 05:26:35 05:30:55 67° 74° (ENE) 05:35:18 437.465
DOVE 4 27 Jun 05:37:18 05:40:43 18° 92° (E) 05:44:12 437.250
RS-15 27 Jun 05:39:40 05:51:50 65° 51° (NE) 06:03:20 29.354- 29.394
AO-85 27 Jun 05:51:27 05:55:31 55° 241° (WSW) 05:59:50 145.980
BEESAT 2 27 Jun 05:51:45 05:55:26 32° 50° (NE) 05:59:04 435.950
NO-84 27 Jun 05:59:41 06:03:07 23° 235° (SW) 06:06:28 435.350 FM
CUBESAT XI-V 27 Jun 06:05:18 06:08:06 16° 268° (W) 06:10:56 437.345
XW-2C 27 Jun 06:08:59 06:10:22 12° 91° (E) 06:11:43 145.795 - 145.815
KAITUO 1B 27 Jun 06:18:45 06:20:02 11° 91° (E) 06:21:17 145.475/437.950
CUTE-I 27 Jun 06:19:30 06:23:10 18° 92° (E) 06:26:47 437.470
BEESAT 3 27 Jun 06:26:15 06:29:59 38° 244° (WSW) 06:33:40 437.485
O/OREOS (USA 219) 27 Jun 06:48:26 06:52:24 30° 60° (ENE) 06:56:19 437.305
NUDT-PHONESAT 27 Jun 06:50:11 06:53:24 28° 96° (E) 06:56:35 437.300
AO-7 27 Jun 07:00:52 07:06:34 21° 310° (NW) 07:12:15 .
STARS 27 Jun 07:06:34 07:07:42 11° 270° (W) 07:08:50 437.465
XW-2F 27 Jun 07:11:06 07:14:50 69° 100° (E) 07:18:33 145.980 - 146.000
HO-68 27 Jun 07:13:31 07:18:31 20° 91° (E) 07:23:28 435.675
DOVE 4 27 Jun 07:13:47 07:18:36 53° 287° (WNW) 07:23:38 437.250
XW-2D 27 Jun 07:16:23 07:20:10 88° 95° (E) 07:23:55 145.860 - 145.880
STRAND 1 27 Jun 07:20:17 07:25:19 58° 72° (ENE) 07:30:23 437.568
CUTE 1.7 + AOD 2 27 Jun 07:21:41 07:23:52 14° 91° (E) 07:26:02 437.475
XW-2B 27 Jun 07:25:27 07:29:14 74° 284° (WNW) 07:32:58 145.730 - 145.750
LilacSat-2 27 Jun 07:26:59 07:30:45 65° 284° (WNW) 07:34:28 437.200
Tancredo 1 27 Jun 07:27:10 07:29:58 36° 137° (SE) 07:32:47 437.200
BEESAT 2 27 Jun 07:29:45 07:33:02 24° 247° (WSW) 07:36:17 435.950
XW-2C 27 Jun 07:41:11 07:44:48 45° 286° (WNW) 07:48:22 145.795 - 145.815
KAITUO 1B 27 Jun 07:50:43 07:54:16 44° 287° (WNW) 07:57:47 145.475/437.950
CUBEBUG 2 27 Jun 07:51:31 07:54:35 17° 91° (E) 07:57:35 437.445
RS-15 27 Jun 07:52:59 08:03:35 39° 254° (WSW) 08:13:44 29.354- 29.394
CUTE-I 27 Jun 07:58:16 08:03:33 57° 288° (WNW) 08:08:47 437.470
ISS 27 Jun 08:08:06 08:11:14 46° 139° (SE) 08:14:24 437.550
FO-29 27 Jun 08:20:17 08:23:55 16° 54° (NE) 08:27:47 435.910
UWE-3 27 Jun 08:20:58 08:24:22 20° 92° (E) 08:27:41 435.000/436.395/437.385
NUDT-PHONESAT 27 Jun 08:24:30 08:27:06 18° 292° (WNW) 08:29:41 437.300
O/OREOS (USA 219) 27 Jun 08:27:59 08:31:40 26° 257° (WSW) 08:35:21 437.305
SEEDS 27 Jun 08:34:39 08:38:47 59° 101° (E) 08:42:52 437.485
YUBILEINY 27 Jun 08:38:30 08:46:48 42° 73° (ENE) 08:55:00 435.215
XW-2A 27 Jun 08:43:48 08:47:14 81° 282° (WNW) 08:50:36 145.665 - 145.685
CUTE 1.7 + AOD 2 27 Jun 08:55:54 08:59:57 48° 287° (WNW) 09:03:59 437.475
HO-68 27 Jun 08:59:42 09:06:53 75° 289° (WNW) 09:14:00 435.675
STRAND 1 27 Jun 09:01:37 09:04:51 17° 269° (W) 09:08:06 437.568
Tancredo 1 27 Jun 09:02:57 09:05:35 27° 335° (NNW) 09:08:15 437.200
AO-73 27 Jun 09:10:58 09:15:01 34° 96° (E) 09:18:56 145.935
TIGRISAT 27 Jun 09:15:51 09:19:14 20° 65° (ENE) 09:22:40 435.000
AAUSAT CUBESAT 2 27 Jun 09:19:50 09:23:57 89° 304° (NW) 09:28:04 437.432
CUBEBUG 2 27 Jun 09:26:56 09:31:27 47° 287° (WNW) 09:35:50 437.445
Oscar 11 27 Jun 09:35:36 09:39:48 49° 99° (E) 09:43:57 .
M-CUBED/EXP-1 PRIME 27 Jun 09:38:30 09:41:48 86° 259° (WSW) 09:45:03 437.505
ISS 27 Jun 09:45:00 09:47:51 26° 336° (NNW) 09:50:42 437.550
ZACube-1 27 Jun 09:46:55 09:51:24 84° 282° (WNW) 09:55:43 437.345
UWE-3 27 Jun 09:56:42 10:00:56 38° 290° (WNW) 10:05:02 435.000/436.395/437.385
UNISAT 6 27 Jun 09:57:11 10:01:42 57° 73° (ENE) 10:06:19 437.425
FO-29 27 Jun 10:01:36 10:07:43 84° 75° (ENE) 10:14:44 435.910
PRISM 27 Jun 10:07:30 10:11:32 77° 76° (ENE) 10:15:35 437.425
SEEDS 27 Jun 10:12:17 10:13:57 12° 297° (WNW) 10:15:36 437.485
DELFI C3 27 Jun 10:28:36 10:32:26 49° 99° (E) 10:36:16 145.870
YUBILEINY 27 Jun 10:35:26 10:43:33 43° 273° (W) 10:51:36 435.215
Tancredo 1 27 Jun 10:40:39 10:41:56 12° 354° (N) 10:43:14 437.200
AO-73 27 Jun 10:47:38 10:51:01 22° 293° (WNW) 10:54:19 145.935
HO-68 27 Jun 10:49:39 10:53:25 15° 308° (NW) 10:57:11 435.675
TIGRISAT 27 Jun 10:51:14 10:55:36 42° 262° (W) 11:00:03 435.000
EO-88 27 Jun 10:57:52 11:01:32 77° 101° (ESE) 11:05:09 145.990 - 145.960
EO-79 27 Jun 10:58:11 11:00:46 16° 65° (ENE) 11:03:23 145.935-145.965
DUCHIFAT 1 27 Jun 11:09:31 11:12:15 17° 65° (ENE) 11:15:00 145.980
Oscar 11 27 Jun 11:12:59 11:15:31 15° 295° (WNW) 11:18:02 .
AIST 2D 27 Jun 11:14:17 11:17:39 43° 74° (ENE) 11:21:02 435.315
LO-87 27 Jun 11:15:03 11:17:08 15° 93° (E) 11:19:12 145.935 - 145.965
NANOSAT C BR1 27 Jun 11:18:27 11:21:49 23° 68° (ENE) 11:25:12 145.865
ISS 27 Jun 11:23:27 11:25:10 13° 356° (N) 11:26:54 437.550
UNISAT 6 27 Jun 11:36:16 11:38:45 14° 270° (W) 11:41:17 437.425
PCSat 27 Jun 11:45:33 11:50:45 50° 113° (ESE) 11:55:59 145.827
FO-29 27 Jun 11:50:24 11:53:49 15° 275° (W) 11:57:28 435.910
POLYITAN 1 27 Jun 11:57:07 12:01:21 70° 76° (ENE) 12:05:38 437.675
DELFI C3 27 Jun 12:04:57 12:06:47 13° 295° (WNW) 12:08:37 145.870
QB50P2 27 Jun 12:08:05 12:12:20 81° 258° (WSW) 12:16:39 145.880/145.840
BUGSAT 1 27 Jun 12:10:30 12:13:48 23° 67° (ENE) 12:17:08 437.445
ESTCUBE 1 27 Jun 12:13:06 12:17:22 43° 99° (E) 12:21:38 437.505/2401.250
SPROUT 27 Jun 12:13:43 12:14:24 10° 89° (E) 12:15:04 437.525
Tancredo 1 27 Jun 12:16:35 12:18:29 15° 15° (NNE) 12:20:23 437.200
Oscar 19 27 Jun 12:22:11 12:25:13 16° 61° (ENE) 12:28:14 437.125/150
EO-79 27 Jun 12:32:03 12:36:08 46° 261° (W) 12:40:16 145.935-145.965
DUCHIFAT 1 27 Jun 12:43:33 12:47:33 43° 261° (W) 12:51:38 145.980
LO-87 27 Jun 12:47:21 12:50:40 33° 288° (WNW) 12:53:58 145.935 - 145.965
AIST 2D 27 Jun 12:50:10 12:51:04 11° 269° (W) 12:51:59 435.315
NANOSAT C BR1 27 Jun 12:53:39 12:57:22 30° 264° (W) 13:01:08 145.865
SO-50 27 Jun 12:53:54 12:55:05 11° 107° (ESE) 12:56:15 436.795
ISS 27 Jun 13:00:14 13:02:39 18° 17° (NNE) 13:05:03 437.550
PCSat 27 Jun 13:29:53 13:34:24 26° 312° (NW) 13:38:56 145.827
Gurwin Techsat 1B 27 Jun 13:30:18 13:35:15 42° 69° (ENE) 13:40:13 435.225
VELOX 1 27 Jun 13:41:39 13:46:06 88° 280° (W) 13:50:33 145.980
BUGSAT 1 27 Jun 13:45:23 13:48:59 29° 264° (W) 13:52:40 437.445
SPROUT 27 Jun 13:46:26 13:50:43 67° 286° (WNW) 13:54:59 437.525
50 SAT 27 Jun 13:49:29 13:52:50 54° 101° (E) 13:56:11 437.505
ESTCUBE 1 27 Jun 13:50:46 13:53:50 18° 295° (WNW) 13:56:54 437.505/2401.250
Tancredo 1 27 Jun 13:51:32 13:54:34 59° 33° (NNE) 13:57:33 437.200
DX 1 27 Jun 13:54:22 13:58:30 40° 99° (E) 14:02:37 434.975-435.025
Oscar 19 27 Jun 13:58:50 14:03:58 68° 258° (WSW) 14:09:06 437.125/150
UKube-1 27 Jun 14:07:04 14:11:05 36° 98° (E) 14:15:05 .
AO-7 27 Jun 14:14:23 14:21:18 31° 56° (ENE) 14:28:14 .
SO-50 27 Jun 14:30:20 14:34:53 80° 303° (WNW) 14:39:26 436.795
ISS 27 Jun 14:36:14 14:39:33 78° 35° (NE) 14:42:51 437.550
ITAMSAT 1 27 Jun 14:42:02 14:46:17 26° 65° (ENE) 14:50:34 435.822/435.867
BEESAT 27 Jun 14:50:43 14:50:55 10° 89° (E) 14:51:08 436.000
Gurwin Techsat 1B 27 Jun 15:11:01 15:15:19 25° 266° (W) 15:19:38 435.225
Tancredo 1 27 Jun 15:28:12 15:29:48 13° 229° (SW) 15:31:23 437.200
DX 1 27 Jun 15:31:18 15:34:23 19° 295° (WNW) 15:37:28 434.975-435.025
MOZHAYETS 4 27 Jun 15:36:11 15:39:40 21° 94° (E) 15:43:07
UKube-1 27 Jun 15:43:41 15:46:51 20° 294° (WNW) 15:50:01 .
AO-7 27 Jun 16:05:14 16:13:28 65° 255° (WSW) 16:21:48 .
SO-50 27 Jun 16:13:57 16:16:04 13° 323° (NW) 16:18:12 436.795
ISS 27 Jun 16:14:22 16:15:36 12° 231° (SW) 16:16:49 437.550
ITUPSAT 1 27 Jun 16:16:00 16:20:49 81° 103° (ESE) 16:25:36 437.325
ITAMSAT 1 27 Jun 16:20:41 16:25:32 40° 262° (W) 16:30:26 435.822/435.867
CUBESAT XI-V 27 Jun 16:24:24 16:26:19 12° 90° (E) 16:28:13 437.345
BEESAT 27 Jun 16:24:28 16:29:16 81° 285° (WNW) 16:34:01 436.000
DOVE 4 27 Jun 16:44:01 16:46:20 15° 63° (ENE) 16:48:42 437.250
KKS-1 27 Jun 16:53:49 16:56:39 16° 92° (E) 16:59:29 437.445
MOZHAYETS 4 27 Jun 17:12:42 17:16:55 37° 290° (WNW) 17:21:06
STARS 27 Jun 17:17:56 17:19:42 12° 91° (E) 17:21:26 437.465
NUDT-PHONESAT 27 Jun 17:30:24 17:32:23 14° 66° (ENE) 17:34:23 437.300
CUTE-I 27 Jun 17:40:53 17:45:28 30° 66° (ENE) 17:50:06 437.470
HO-68 27 Jun 17:43:49 17:47:59 17° 53° (NE) 17:52:09 435.675
XW-2F 27 Jun 17:51:45 17:55:09 31° 71° (ENE) 17:58:32 145.980 - 146.000
ITUPSAT 1 27 Jun 17:56:09 17:57:57 12° 300° (WNW) 17:59:45 437.325
XW-2D 27 Jun 17:57:12 18:00:48 39° 73° (ENE) 18:04:23 145.860 - 145.880
CUBESAT XI-V 27 Jun 17:59:32 18:04:06 64° 285° (WNW) 18:08:37 437.345
AO-7 27 Jun 18:06:07 18:07:44 11° 274° (W) 18:09:21 .
XW-2B 27 Jun 18:06:08 18:09:51 49° 74° (ENE) 18:13:33 145.730 - 145.750
LilacSat-2 27 Jun 18:08:11 18:11:58 56° 75° (ENE) 18:15:46 437.200
CUTE 1.7 + AOD 2 27 Jun 18:15:47 18:16:45 11° 62° (ENE) 18:17:44 437.475
DOVE 4 27 Jun 18:19:33 18:23:35 49° 261° (W) 18:27:46 437.250
XW-2C 27 Jun 18:21:36 18:25:27 80° 77° (ENE) 18:29:18 145.795 - 145.815
KKS-1 27 Jun 18:29:08 18:33:26 46° 288° (WNW) 18:37:43 437.445
KAITUO 1B 27 Jun 18:29:52 18:33:38 77° 78° (ENE) 18:37:25 145.475/437.950
CUBEBUG 2 27 Jun 18:49:48 18:52:29 15° 63° (ENE) 18:55:12 437.445
STARS 27 Jun 18:52:01 18:56:25 62° 287° (WNW) 19:00:47 437.465
NUDT-PHONESAT 27 Jun 19:02:22 19:05:56 40° 262° (W) 19:09:30 437.300
XW-2A 27 Jun 19:14:51 19:17:54 29° 72° (ENE) 19:20:57 145.665 - 145.685
UWE-3 27 Jun 19:17:55 19:21:01 18° 65° (ENE) 19:24:08 435.000/436.395/437.385
CUTE-I 27 Jun 19:20:34 19:25:24 35° 263° (W) 19:30:17 437.470
SEEDS 27 Jun 19:25:56 19:29:51 39° 72° (ENE) 19:33:46 437.485
XW-2F 27 Jun 19:26:43 19:29:20 17° 267° (W) 19:31:56 145.980 - 146.000
HO-68 27 Jun 19:27:25 19:34:37 81° 72° (ENE) 19:41:51 435.675
STRAND 1 27 Jun 19:31:44 19:35:28 20° 93° (E) 19:39:10 437.568
XW-2D 27 Jun 19:33:05 19:35:09 14° 268° (W) 19:37:12 145.860 - 145.880
XW-2B 27 Jun 19:43:03 19:44:18 11° 269° (W) 19:45:33 145.730 - 145.750
CUTE 1.7 + AOD 2 27 Jun 19:47:45 19:51:59 72° 258° (WSW) 19:56:13 437.475
RS-15 27 Jun 20:02:30 20:13:22 41° 107° (ESE) 20:24:24 29.354- 29.394
AO-85 27 Jun 20:05:55 20:09:49 44° 118° (ESE) 20:13:35 145.980
AO-73 27 Jun 20:05:59 20:09:51 28° 69° (ENE) 20:13:44 145.935
AAUSAT CUBESAT 2 27 Jun 20:09:22 20:13:24 56° 74° (ENE) 20:17:26 437.432
BEESAT 3 27 Jun 20:15:30 20:19:03 32° 115° (ESE) 20:22:38 437.485
CUBEBUG 2 27 Jun 20:24:00 20:28:32 60° 260° (W) 20:33:14 437.445
Oscar 11 27 Jun 20:30:03 20:34:02 37° 71° (ENE) 20:38:02 .
PCSat 27 Jun 20:33:25 20:38:32 40° 53° (NE) 20:43:37 145.827
ZACube-1 27 Jun 20:41:43 20:46:15 74° 75° (ENE) 20:50:51 437.345
XW-2A 27 Jun 20:48:43 20:50:42 15° 267° (W) 20:52:42 145.665 - 145.685
UWE-3 27 Jun 20:52:35 20:57:03 49° 262° (W) 21:01:36 435.000/436.395/437.385
